Chippewa, MI

9:31 PM EST on December 15, 2019 (GMT -0500)
Chippewa County International

Weather History for KCIU - October, 2019

Change the Weather History Date:

Saturday, October 12, 2019

  Actual Average Record
Temperature  
Mean Temperature 40 °F -  
Max Temperature 46 °F 55 °F 69 °F (2008)
Min Temperature 35 °F 36 °F 23 °F (1981)
Degree Days  
Heating Degree Days 26    
Moisture  
Dew Point 36 °F    
Average Humidity 88    
Maximum Humidity 100    
Minimum Humidity 55    
Precipitation  
Precipitation 0.49 in - - ()
Sea Level Pressure  
Sea Level Pressure 29.80 in    
Wind  
Wind Speed 6 mph ()    
Max Wind Speed 12 mph    
Max Gust Speed 21 mph    
Visibility 9.9 miles    
Events Rain    
Averages and records for this station are not official NWS values.
T = Trace of Precipitation, MM = Missing Value Source: Averaged Metar Reports

Daily Weather History Graph

Daily Weather History Graph

Search for Another Location

Airport or City:

Astronomy

Oct. 12, 2019 Rise Set
Actual Time 7:50 AM EDT 6:57 PM EDT
Civil Twilight 7:20 AM EDT 7:27 PM EDT
Nautical Twilight 6:45 AM EDT 8:02 PM EDT
Astronomical Twilight 6:10 AM EDT 8:36 PM EDT
Moon 6:59 PM EDT (10/12) 6:18 AM EDT (10/12)
Length of Visible Light 12h 06m
Length of Day
11h 06m
Waxing Gibbous, 99% of the Moon is Illuminated
Oct 12
Waxing Gibbous
Oct 13
Full
Oct 21
Last Quarter
Oct 27
New
Nov 4
First Quarter

Hourly Weather History & Observations

Time (EDT) Temp. Windchill Dew Point Humidity Pressure Visibility Wind Dir Wind Speed Gust Speed Precip Events Conditions
12:56 AM 43.0 °F 38.2 °F 42.1 °F 97% 29.79 in 8.0 mi West 8.1 mph - 0.13 in Rain Rain
1:53 AM 41.0 °F 35.8 °F 39.2 °F 93% 29.80 in 10.0 mi West 8.1 mph - 0.09 in   Overcast
1:56 AM 41.0 °F 35.8 °F 39.9 °F 96% 29.81 in 10.0 mi West 8.1 mph - 0.09 in   Overcast
2:56 AM 39.0 °F 32.3 °F 36.0 °F 89% 29.82 in 10.0 mi WNW 10.4 mph - N/A   Overcast
3:12 AM 39.2 °F 34.2 °F 35.6 °F 87% 29.81 in 10.0 mi WNW 6.9 mph - 0.01 in Rain Light Rain
3:47 AM 37.4 °F 32.1 °F 35.6 °F 93% 29.81 in 10.0 mi West 6.9 mph - 0.01 in Rain Light Rain
3:56 AM 37.9 °F 33.5 °F 35.1 °F 89% 29.82 in 10.0 mi NW 5.8 mph - 0.01 in Rain Light Rain
4:25 AM 37.4 °F - 35.6 °F 93% 29.81 in 10.0 mi Calm Calm - 0.01 in   Overcast
4:56 AM 37.9 °F 35.5 °F 35.1 °F 89% 29.82 in 10.0 mi North 3.5 mph - 0.01 in   Overcast
5:38 AM 37.4 °F - 35.6 °F 93% 29.82 in 10.0 mi Calm Calm - 0.00 in   Overcast
5:56 AM 37.9 °F - 36.0 °F 93% 29.83 in 10.0 mi Calm Calm - 0.00 in   Overcast
6:20 AM 37.4 °F - 33.8 °F 87% 29.82 in 10.0 mi Calm Calm - N/A   Overcast
6:56 AM 37.9 °F - 32.0 °F 79% 29.81 in 10.0 mi Calm Calm - N/A   Overcast
7:56 AM 37.9 °F 35.5 °F 36.0 °F 93% 29.81 in 10.0 mi ESE 3.5 mph - N/A   Overcast
8:56 AM 37.9 °F 32.1 °F 36.0 °F 93% 29.82 in 10.0 mi ESE 8.1 mph - N/A   Overcast
9:56 AM 37.9 °F 30.9 °F 36.0 °F 93% 29.82 in 10.0 mi South 10.4 mph - 0.00 in Rain Light Rain
10:05 AM 37.4 °F 30.3 °F 35.6 °F 93% 29.81 in 10.0 mi South 10.4 mph - 0.00 in Rain Light Rain
10:56 AM 37.9 °F 30.9 °F 37.0 °F 97% 29.82 in 10.0 mi South 10.4 mph 17.3 mph 0.00 in   Overcast
11:06 AM 37.4 °F 31.4 °F 35.6 °F 93% 29.80 in 10.0 mi South 8.1 mph 20.7 mph 0.00 in Rain Light Rain
11:17 AM 37.4 °F 30.8 °F 37.4 °F 100% 29.81 in 10.0 mi South 9.2 mph - 0.00 in   Overcast
11:28 AM 39.2 °F 34.2 °F 37.4 °F 93% 29.81 in 10.0 mi South 6.9 mph 19.6 mph 0.00 in   Overcast
11:56 AM 37.9 °F 30.5 °F 36.0 °F 93% 29.83 in 10.0 mi South 11.5 mph 17.3 mph 0.00 in Rain Light Rain
12:56 PM 37.9 °F 32.1 °F 36.0 °F 93% 29.84 in 10.0 mi South 8.1 mph - 0.01 in Rain Light Rain
1:34 PM 39.2 °F 34.2 °F 37.4 °F 93% 29.81 in 10.0 mi South 6.9 mph - 0.03 in Rain Light Rain
1:56 PM 39.0 °F 34.0 °F 37.0 °F 93% 29.82 in 10.0 mi South 6.9 mph - 0.03 in   Overcast
2:04 PM 39.2 °F 35.0 °F 39.2 °F 100% 29.79 in 10.0 mi South 5.8 mph - N/A   Overcast
2:46 PM 41.0 °F 35.8 °F 37.4 °F 87% 29.79 in 10.0 mi South 8.1 mph - 0.00 in Rain Light Rain
2:56 PM 41.0 °F 35.8 °F 36.0 °F 82% 29.81 in 10.0 mi South 8.1 mph - 0.00 in Rain Light Rain
3:56 PM 43.0 °F 38.8 °F 32.0 °F 65% 29.80 in 10.0 mi SSW 6.9 mph - 0.00 in   Mostly Cloudy
4:56 PM 44.1 °F 39.5 °F 30.9 °F 60% 29.79 in 10.0 mi South 8.1 mph - N/A   Overcast
5:56 PM 44.1 °F 39.5 °F 30.0 °F 58% 29.79 in 10.0 mi South 8.1 mph - N/A   Mostly Cloudy
6:56 PM 43.0 °F 37.7 °F 30.0 °F 60% 29.78 in 10.0 mi South 9.2 mph - N/A   Overcast
7:56 PM 44.1 °F 38.1 °F 28.9 °F 55% 29.78 in 10.0 mi South 11.5 mph 20.7 mph N/A   Overcast
8:56 PM 39.9 °F 35.1 °F 35.1 °F 83% 29.81 in 10.0 mi WSW 6.9 mph 18.4 mph 0.00 in Rain Light Rain
9:26 PM 37.4 °F 30.3 °F 35.6 °F 93% 29.82 in 8.0 mi SW 10.4 mph 18.4 mph 0.07 in Rain Rain
9:56 PM 36.0 °F 30.3 °F 34.0 °F 93% 29.79 in 10.0 mi SSE 6.9 mph - 0.10 in   Overcast
10:21 PM 35.6 °F 29.2 °F 35.6 °F 100% 29.77 in 10.0 mi SSE 8.1 mph - 0.01 in Rain Light Rain
10:54 PM 37.4 °F 31.4 °F 35.6 °F 93% 29.76 in 10.0 mi South 8.1 mph - 0.05 in Rain Light Rain
10:56 PM 37.9 °F 32.1 °F 36.0 °F 93% 29.77 in 10.0 mi South 8.1 mph - 0.05 in Rain Light Rain
11:56 PM 39.0 °F 32.3 °F 37.9 °F 96% 29.74 in 9.0 mi South 10.4 mph 16.1 mph 0.06 in Rain Light Rain